CAPE
0 0 0 0 0 0 0 0 0 0 0 0 0 0 0 0 0 0 0 0 0 0 0 0 0 0 0 411 1943 2114 2405 2028 1846 1937 1975 2031 2038 1794 1753 1587 1690 1747 1689 1590 1709 1851 1908 1672 1404 1270 922 818 878 891 1099 1501 1348 1463 1535 1853 1721 1668 1445 1695 1906 2135 2326 2052 1723 1191 1359 1327 1302 1342 1406 1367 1175 940 829 963 1412 1407 1214 1204 1188 938
0 0 0 0 0 0 0 0 0 0 0 0 0 0 0 0 0 0 0 0 0 0 0 0 0 0 0 364 1433 1971 2445 1937 1978 2007 2074 2151 1940 1901 1827 1739 1569 1661 1707 1630 1830 1980 1970 1701 1672 1449 1048 952 924 842 1356 1532 1554 1577 1580 2012 1692 1704 1553 1245 1732 2194 2178 1787 1663 1555 1254 1176 1238 1402 1449 1238 893 788 673 686 920 1494 1383 1214 1168 870
0 0 0 0 0 0 0 0 0 0 0 0 0 0 0 0 0 0 0 0 0 0 0 0 0 0 22 402 1205 1740 2328 2256 2010 1980 2156 2090 2107 1945 1810 1788 1654 1522 1643 1632 1839 2065 1937 1496 1594 1609 1110 1057 895 1026 1244 1497 1661 1629 1714 2148 1952 2000 2010 1369 1732 2152 1801 1568 1151 1298 809 1065 1050 1026 932 847 803 601 361 217 339 899 1454 1510 1534 1324
0 0 0 0 0 0 0 0 0 0 0 0 0 0 0 0 0 0 0 0 0 0 0 0 0 0 0 568 1132 1838 1896 2126 2062 2059 2208 2275 2158 2033 1902 1812 1710 1489 1425 1558 1899 2026 1880 1583 1520 1608 1230 1100 946 1114 1368 952 1090 1500 1963 2041 1963 2315 2288 1717 1884 1814 1788 1236 1019 912 821 989 1014 988 912 847 668 271 202 103 82 176 550 721 997 1049
0 0 0 0 0 0 0 0 0 0 0 0 0 0 0 0 0 0 0 0 0 0 0 0 0 0 0 728 999 1351 1692 1385 1687 2014 2201 2280 2266 2107 2091 2049 1879 1605 1484 1512 1801 1946 1954 1715 1524 1607 1286 1080 1067 1364 1229 834 1100 1460 1930 1971 2122 2394 2221 2085 1929 1700 1400 1016 938 869 765 757 789 801 727 506 299 287 152 51 98 25 44 194 381 643
0 0 0 0 0 0 0 0 0 0 0 0 0 0 0 0 0 0 0 0 0 0 0 0 0 0 0 0 570 1010 1352 1307 1403 1822 2050 2064 2035 1888 1991 2025 1938 1798 1658 1686 1690 1852 2030 1935 1507 1471 1386 1137 1376 1477 1159 1002 1398 1646 1792 1947 2228 2375 2266 2032 1781 1566 1188 925 891 866 845 781 623 690 604 457 310 196 208 56 0 0 0 15 96 119
0 0 0 0 0 0 0 0 0 0 0 0 0 0 0 0 0 0 0 0 0 0 0 0 0 0 0 0 0 133 396 762 1066 1337 1603 1803 1927 1906 1814 1837 1796 1819 1775 1783 1870 1874 2141 1828 1566 1336 1334 1345 1521 1548 1178 1183 1600 1657 1826 1967 2380 2455 2256 1992 1654 1427 1076 1162 1327 1504 1347 1124 934 615 608 290 244 230 16 0 0 0 0 0 26 12
0 0 0 0 0 0 0 0 0 0 0 0 0 0 0 0 0 0 0 0 0 0 0 0 0 0 0 0 0 0 0 164 696 1133 1400 1469 1569 1578 1621 1615 1666 1645 1562 1636 1685 1795 2104 1830 1643 1475 1259 1097 1301 1436 1111 1403 1480 1489 1597 1958 2340 2414 2057 1574 1371 1210 1075 1132 1116 1052 986 949 883 656 310 199 115 54 2 0 0 0 0 0 0 1
0 0 0 0 0 0 0 0 0 0 0 0 0 0 0 0 0 0 0 0 0 0 0 0 0 0 0 3 0 0 0 3 215 640 1053 1282 1342 1546 1559 1542 1568 1496 1559 1529 1426 1548 1848 2111 1814 1452 1236 964 1103 1391 1245 1218 1153 1324 1489 1794 2185 2173 1634 1191 1043 1026 957 897 917 844 724 542 394 386 233 123 54 12 2 0 0 0 0 0 0 0
0 0 0 0 0 0 0 0 0 0 0 0 0 0 0 0 0 0 0 0 0 0 0 0 0 0 0 0 0 0 0 30 2 0 147 602 1123 1222 1350 1545 1568 1595 1576 1464 1368 1315 1624 2021 1280 996 938 986 1185 1062 994 977 1187 1388 1511 1705 2019 1918 1399 963 911 877 739 578 632 725 701 554 370 318 211 156 70 17 40 6 0 0 0 0 0 0
0 0 0 0 0 0 0 0 0 0 0 0 0 0 0 0 0 0 0 0 0 0 0 0 0 0 0 0 0 0 20 0 0 0 0 0 0 634 1107 1358 1539 1722 1744 1669 1506 1318 1565 1537 1115 966 624 504 885 842 959 1097 1203 1347 1437 1583 1789 1700 1329 1158 983 856 733 593 711 714 789 729 518 420 282 179 80 9 36 6 1 3 0 0 0 0
0 0 0 0 0 0 0 0 0 0 0 0 0 0 0 0 0 0 0 0 0 0 0 0 0 0 0 0 0 0 0 0 0 0 20 19 2 0 36 598 1054 1240 1494 1697 1648 1712 1800 1876 1438 961 890 498 801 830 949 982 1199 1328 1369 1453 1572 1501 1366 1455 1126 936 797 596 435 588 693 746 598 484 420 380 207 98 41 17 2 0 0 0 0 1
0 0 0 0 0 0 0 0 0 0 0 0 0 0 0 0 0 0 0 0 0 0 0 0 0 0 0 0 0 0 1 3 20 42 125 154 72 4 0 13 326 788 1016 1231 1317 1353 1678 2087 1909 1230 983 726 604 467 581 1051 848 798 1015 1164 1142 1376 1396 1635 1577 1006 863 632 278 254 422 598 560 546 565 509 320 165 55 12 6 5 0 0 0 0
0 0 0 0 0 0 0 0 0 0 0 0 0 0 0 0 0 0 0 0 0 0 0 0 0 0 0 0 0 0 0 3 143 394 389 260 185 171 306 439 523 647 787 948 975 939 1178 1619 2062 1847 1152 634 559 525 243 810 891 903 1033 978 912 719 1171 1511 1667 1328 986 627 231 244 355 476 482 597 604 467 275 146 74 27 22 17 3 0 4 4
0 0 0 0 0 0 0 0 0 0 0 0 0 0 0 0 0 0 0 0 0 0 0 0 0 0 0 61 0 251 13 290 445 395 346 372 341 401 399 388 482 562 626 797 872 865 1010 1333 1656 1577 1314 722 769 733 584 756 891 735 744 592 11 150 908 1305 1527 1470 1030 465 149 208 294 392 503 520 457 396 287 90 28 9 24 21 25 11 0 7
0 0 0 0 0 0 0 0 0 0 0 0 0 0 0 0 0 0 0 0 0 0 0 0 0 0 0 0 186 125 446 511 416 472 543 482 465 516 487 476 480 509 616 764 841 847 952 1170 1000 801 767 894 918 830 686 701 706 369 59 573 654 783 938 1144 1290 1152 571 369 275 133 158 210 339 362 269 81 6 72 103 20 26 20 44 32 5 0
0 0 0 0 0 0 0 0 0 0 2 0 0 0 0 0 0 0 0 0 0 0 0 0 0 0 0 0 0 149 700 615 604 588 717 714 663 634 578 538 571 610 708 788 771 784 817 755 532 202 207 248 349 691 783 811 698 428 450 534 807 883 922 1087 768 556 518 480 428 411 394 431 494 522 374 117 3 0 1 20 63 39 23 20 17 5
0 2 0 0 0 0 0 0 0 0 0 0 0 0 0 0 0 0 0 0 0 0 0 0 0 0 0 6 3 267 863 738 697 706 730 831 815 796 717 670 680 688 673 670 699 610 410 279 144 78 204 67 168 617 600 792 748 703 608 415 472 663 811 685 538 545 575 545 515 550 603 638 645 575 387 270 89 0 0 5 20 47 11 13 33 34
0 0 0 0 0 0 0 0 0 0 0 0 0 0 0 0 0 0 0 0 0 0 0 0 0 0 0 15 0 33 686 979 795 832 886 840 901 857 753 760 732 685 682 541 405 523 148 112 233 605 478 457 687 522 517 129 584 790 750 633 396 311 337 227 264 301 362 485 578 635 676 595 571 497 349 297 66 8 20 11 21 36 119 96 35 24
1 0 0 0 0 0 0 0 0 0 0 0 0 0 0 0 51 0 0 1 0 0 0 0 0 0 0 4 34 123 630 1105 880 881 963 913 890 898 768 742 589 481 405 320 348 628 143 683 522 262 514 543 580 719 626 543 580 671 688 618 588 212 140 211 238 237 240 383 546 698 668 465 423 388 318 287 38 17 43 26 38 92 94 148 47 82
1 0 4 2 0 0 0 0 0 0 0 0 0 0 0 0 0 0 0 0 0 0 0 0 0 0 0 0 16 36 358 923 1017 964 948 1002 992 953 773 569 521 524 552 528 467 327 698 755 688 662 675 719 709 698 753 821 873 912 912 713 624 531 510 462 305 243 220 135 391 643 731 408 390 360 358 243 78 113 92 68 38 77 167 36 72 24
0 0 1 2 0 0 0 0 0 0 0 0 0 0 0 0 0 0 0 0 0 0 0 0 0 0 0 0 4 2 34 284 712 809 779 792 570 533 430 311 376 563 522 546 653 783 919 876 876 866 726 793 792 902 886 1053 1202 1124 942 843 716 539 542 568 511 273 251 337 392 620 801 509 387 416 424 164 97 72 44 87 58 68 5 68 68 36
0 0 2 1 0 4 0 0 0 0 0 0 0 0 0 0 0 0 0 0 0 0 0 0 0 0 0 0 0 0 0 0 480 676 749 643 544 465 460 442 420 454 550 650 692 824 946 1001 1014 978 984 985 1014 1010 1011 1024 1113 1142 1011 905 555 322 402 521 568 513 545 650 646 717 632 474 430 481 484 299 275 236 188 279 216 46 121 173 111 65
244 2 1 0 0 0 3 1 0 0 0 0 0 0 0 1 0 8 15 0 0 0 0 0 0 0 0 0 0 0 0 38 533 671 769 571 493 485 468 472 547 614 658 676 736 845 883 926 973 959 961 1003 999 1027 1034 1016 1037 1030 1051 1092 1014 949 1124 1114 934 816 788 795 819 810 711 534 446 448 447 482 492 613 495 398 423 240 235 178 277 247
40 0 0 0 0 0 0 0 0 0 0 0 0 0 0 0 0 0 0 0 0 0 0 0 0 0 0 0 24 229 364 506 585 616 581 531 478 488 514 540 618 637 629 625 636 718 757 770 857 874 856 858 912 917 970 1023 1044 1052 1069 1041 1022 1034 1018 1051 1097 999 959 924 926 909 835 721 490 489 551 673 672 682 546 590 680 526 357 443 435 523
0 7 8 6 0 0 2 0 0 0 0 0 0 0 0 0 0 0 0 0 0 0 0 0 0 0 0 9 98 322 478 551 663 640 599 506 478 479 514 582 561 529 563 619 707 834 756 750 771 794 794 772 783 801 833 867 900 903 903 864 848 830 847 895 975 1066 1133 1110 1076 1019 920 755 521 510 534 567 637 734 769 762 638 572 686 626 645 697
0 0 0 0 3 0 0 0 0 0 0 0 0 0 0 0 0 0 0 0 0 0 0 0 0 0 2 0 22 363 576 547 687 673 606 526 495 423 539 589 491 461 486 548 598 671 686 727 736 734 716 699 641 634 653 702 731 767 768 759 739 752 772 801 832 902 994 1058 1054 1001 902 803 637 461 459 534 638 672 685 670 723 590 549 545 645 709
0 0 0 0 0 0 0 0 0 0 0 0 0 1 1 2 0 0 0 0 0 0 0 0 0 7 12 0 135 416 525 606 703 720 694 605 647 574 610 625 532 401 372 364 466 548 594 642 676 651 592 538 518 509 539 544 576 595 594 634 644 591 671 672 699 718 756 835 903 917 917 909 868 632 454 529 567 663 766 785 788 776 740 650 751 799
1 0 0 0 0 0 0 0 0 0 0 0 0 0 0 1 1 0 0 0 0 0 0 0 0 46 0 0 0 363 519 634 754 781 806 625 729 723 628 590 505 439 408 343 420 508 509 538 545 528 522 540 529 551 568 564 557 578 610 634 628 585 623 646 675 676 686 729 787 816 847 837 823 733 551 445 160 329 707 918 901 719 679 695 768 854
1 0 0 0 0 0 0 0 0 0 0 0 0 0 0 0 0 0 0 0 0 0 0 0 0 0 0 0 0 80 393 613 821 873 872 687 742 765 680 597 568 497 555 509 383 452 443 449 507 453 445 441 445 507 578 595 607 612 631 665 709 735 750 766 796 797 802 809 771 712 615 585 594 640 631 491 578 615 660 330 832 819 670 606 612 612
0 0 0 0 0 0 0 0 0 0 0 1 2 2 1 0 0 0 0 0 0 0 0 0 0 0 0 0 0 0 0 373 724 929 982 782 701 746 738 610 614 584 606 669 482 332 335 371 424 350 365 310 265 202 367 649 701 667 642 652 666 670 677 690 698 704 658 710 716 748 758 768 728 649 605 796 675 726 189 100 438 654 625 560 495 499
0 0 0 0 0 0 0 0 0 0 0 0 0 0 0 0 0 0 0 0 0 0 0 0 0 1 0 0 0 0 0 0 289 787 1020 873 821 594 317 230 450 596 651 733 755 388 304 326 245 238 286 0 0 0 0 417 741 761 720 676 646 631 616 660 724 749 724 735 724 696 669 633 650 682 670 637 467 440 439 399 107 108 80 238 126 134
0 0 0 0 0 0 0 0 0 0 0 0 1 0 0 0 0 0 0 0 0 0 0 0 0 0 0 0 0 0 0 5 28 398 800 960 884 621 223 258 390 445 582 705 751 639 377 228 0 100 216 0 0 0 0 122 381 314 217 0 0 375 635 599 498 471 472 470 465 442 398 424 710 621 488 331 64 145 350 58 33 366 108 254 465 359
0 4 3 0 0 0 0 0 0 0 0 0 0 0 0 0 1 2 2 2 0 0 0 0 0 0 0 0 0 0 0 0 18 162 509 828 870 588 130 56 13 0 233 459 652 714 408 38 0 0 42 1 0 0 0 0 0 0 0 1 0 0 0 0 1 1 0 0 0 330 464 486 485 472 304 177 53 97 71 48 96 166 184 140 66 122
8 5 8 5 3 4 3 2 1 2 0 0 0 0 0 0 0 0 0 0 0 0 0 0 0 0 0 0 0 0 0 0 0 15 326 486 574 430 267 200 135 72 56 10 304 492 443 0 0 3 11 16 9 2 0 0 0 0 0 2 4 6 0 0 0 0 0 0 0 0 0 0 0 0 0 0 16 68 94 90 47 16 4 39 88 103
0 4 8 8 12 13 8 6 0 0 0 0 0 0 0 0 0 0 0 0 0 0 0 0 0 0 0 0 0 0 0 0 0 3 170 127 264 259 195 245 112 17 2 21 72 42 27 78 21 31 32 27 26 21 9 4 0 0 0 0 0 5 2 0 0 0 0 0 0 0 0 0 0 0 0 0 9 23 15 24 26 18 2 2 0 0
8 7 8 14 9 8 3 0 0 0 0 0 0 0 0 0 0 0 0 0 0 0 0 0 0 0 0 0 0 0 0 0 0 2 0 50 188 310 288 101 11 6 63 114 103 40 28 16 24 45 45 29 12 24 35 10 0 0 0 0 0 0 0 0 0 0 0 0 0 0 0 0 0 0 0 0 9 13 28 30 20 5 1 30 18 39
2 7 16 12 14 3 7 4 0 0 0 0 0 0 0 0 0 0 0 0 0 0 0 0 0 0 0 0 0 0 0 0 0 1 3 27 86 94 92 109 67 34 15 0 0 0 0 0 0 17 44 20 12 8 4 0 0 0 0 1 0 0 0 0 0 0 0 0 0 1 0 0 0 0 2 42 51 69 26 9 9 5 0 164 127 58
3 5 10 8 12 5 3 2 0 0 0 0 0 0 0 0 0 0 0 0 0 0 0 0 0 0 0 0 0 0 0 0 0 0 0 2 7 11 14 8 2 0 0 0 0 0 0 0 1 0 0 0 6 10 0 0 0 1 1 0 0 0 0 0 1 2 3 3 2 0 0 0 0 0 0 0 1 44 108 171 112 0 0 3 28 2
0 0 0 0 0 0 0 0 0 0 0 0 0 0 0 0 0 0 0 0 0 0 0 0 0 0 0 0 0 0 0 0 0 0 0 0 0 2 2 4 4 3 6 3 0 0 0 0 0 0 0 0 4 2 0 0 0 0 0 0 0 0 0 1 6 8 6 4 0 0 0 0 0 0 0 0 0 0 32 0 0 0 0 0 0 0
0 0 0 0 0 0 0 0 0 0 0 0 0 0 0 0 0 0 0 0 0 0 0 0 0 0 0 0 0 0 0 0 0 0 0 0 0 0 0 0 0 0 1 2 2 1 0 0 0 11 13 7 0 1 1 0 0 0 0 0 0 0 1 3 5 4 0 0 0 0 0 0 10 93 123 78 10 0 0 0 0 0 0 0 0 0
0 0 0 0 0 0 0 0 4 1 0 0 1 2 6 5 6 0 0 0 0 0 0 0 0 0 0 0 0 0 0 0 0 0 0 0 0 1 2 0 0 0 0 1 1 0 0 0 0 0 0 3 6 4 1 1 0 0 0 0 0 0 0 1 0 0 0 0 0 0 0 1 1 22 114 2 3 1 0 0 0 2 10 0 0 0
0 0 0 0 0 0 0 1 3 13 2 0 6 6 10 4 3 1 0 0 0 0 0 0 0 0 0 0 0 1 3 1 0 1 2 0 0 2 4 5 8 6 3 1 0 0 0 0 0 0 0 0 0 0 0 0 0 0 0 0 0 0 0 0 0 0 0 0 0 0 0 3 30 18 27 58 74 69 31 0 0 0 0 2 0 0
0 0 4 11 13 8 9 6 6 0 4 7 6 9 7 4 5 6 3 5 4 3 1 0 0 0 1 1 3 4 5 8 7 5 2 2 3 3 1 0 0 0 0 0 0 0 0 0 0 0 0 0 0 0 0 0 0 0 0 0 0 0 0 0 0 0 0 0 0 0 0 0 0 13 48 110 72 142 107 0 1 0 0 1 1 0
0 0 0 3 9 1 12 22 18 14 13 16 16 19 20 18 19 16 6 7 10 13 8 3 0 0 0 0 0 0 0 0 0 1 1 0 0 1 0 0 0 0 0 0 0 0 0 0 0 0 0 0 0 0 0 0 0 0 0 0 0 0 0 0 0 0 0 0 0 0 0 0 4 8 26 71 63 107 117 78 3 1 0 4 20 44
0 0 0 0 0 0 0 2 8 13 23 17 16 10 14 13 11 13 11 8 4 4 12 19 18 6 2 0 0 1 0 0 0 0 0 1 3 1 0 0 0 0 0 0 0 0 0 0 0 0 0 0 0 0 1 2 1 2 1 0 0 0 0 0 0 0 0 0 0 0 0 0 1 10 23 41 18 108 114 114 10 116 25 10 64 79
0 0 0 0 0 0 0 0 0 0 2 5 9 9 1 0 0 0 0 2 4 3 2 1 1 0 0 0 0 0 0 0 0 0 0 0 0 0 0 0 0 0 0 0 0 0 0 0 0 0 0 0 0 0 0 0 1 0 0 1 0 0 0 0 0 0 0 0 0 0 0 0 2 15 23 16 13 35 100 170 149 196 76 42 92 77
0 0 0 0 0 0 0 0 0 0 0 0 0 0 1 3 0 0 0 0 0 0 0 0 0 0 0 0 0 0 0 0 0 0 0 0 0 0 0 0 0 0 0 0 0 0 0 0 0 0 0 0 0 0 0 0 0 0 0 0 0 0 0 0 0 0 0 0 0 0 0 2 0 0 9 35 24 30 24 24 86 160 125 66 120 130
0 0 0 0 0 0 0 0 0 0 0 0 0 0 0 0 0 0 0 0 0 0 0 0 0 0 0 0 0 0 0 0 0 0 0 0 0 0 0 0 0 0 0 0 0 0 0 0 0 0 0 0 0 0 0 0 0 0 0 0 0 0 0 0 0 0 0 0 0 0 0 0 0 2 3 53 3 2 36 114 61 86 194 71 67 147
0 0 0 0 0 0 0 0 0 0 0 0 0 0 0 0 0 0 0 0 0 0 0 0 0 0 0 0 0 0 0 0 0 0 0 0 0 0 0 0 0 0 0 0 0 0 0 0 0 0 0 0 0 0 0 0 0 0 0 0 0 0 0 0 0 0 0 0 0 0 0 0 0 29 31 73 98 22 16 20 18 19 47 74 58 41
0 0 0 0 0 0 0 0 0 0 0 0 0 0 0 0 0 0 0 0 0 0 0 0 0 0 0 0 0 0 0 0 0 0 0 0 0 0 0 0 0 0 0 0 0 0 0 0 0 0 0 0 0 0 0 0 0 0 0 0 0 0 0 0 0 0 0 0 0 0 0 0 0 1 0 4 20 32 30 21 0 5 82 78 75 74
Wind_Speed
nan nan nan nan nan nan nan nan nan nan nan nan nan nan nan nan nan nan nan nan nan nan nan nan nan nan nan 22 21 18 18 17 15 14 14 14 15 16 16 16 16 19 22 23 24 26 23 20 19 18 16 14 16 16 14 11 13 12 6 2 6 14 19 19 13 11 13 14 14 14 13 12 10 12 14 15 15 15 16 16 16 18 19 19 19 19
nan nan nan nan nan nan nan nan nan nan nan nan nan nan nan nan nan nan nan nan nan nan nan nan nan nan nan 20 17 15 14 13 12 12 12 12 13 13 11 12 13 17 22 22 20 22 20 18 17 15 14 14 15 13 11 12 9 1 5 2 8 12 15 17 13 11 14 14 12 12 11 10 11 13 14 15 15 16 16 16 16 17 18 19 19 19
nan nan nan nan nan nan nan nan nan nan nan nan nan nan nan nan nan nan nan nan nan nan nan nan nan nan nan 19 18 15 14 15 12 12 11 11 12 11 10 9 11 17 20 15 12 15 15 16 15 12 11 12 13 14 11 7 3 4 5 2 9 7 13 16 8 12 15 16 15 13 11 11 12 12 13 15 16 16 17 17 16 16 16 17 17 18
nan nan nan nan nan nan nan nan nan nan nan nan nan nan nan nan nan nan nan nan nan nan nan nan nan nan nan 20 17 17 18 18 18 13 13 12 10 8 8 8 9 14 15 10 7 10 11 12 13 11 10 11 12 11 10 8 4 4 6 9 12 12 14 16 14 16 20 20 17 16 15 14 13 14 16 17 17 17 17 17 nan 15 15 15 15 16
nan nan nan nan nan nan nan nan nan nan nan nan nan nan nan nan nan nan nan nan nan nan nan nan nan nan nan 18 16 18 18 17 17 16 13 9 9 13 11 7 7 9 9 6 4 6 10 11 11 11 9 10 11 11 10 9 7 5 7 11 14 13 12 14 19 19 21 20 18 17 18 18 18 16 16 17 17 16 16 nan nan nan nan 13 14 15
nan nan nan nan nan nan nan nan nan nan nan nan nan nan nan nan nan nan nan nan nan nan nan nan nan nan nan nan 17 18 16 13 16 12 10 8 5 8 6 6 9 7 6 7 6 5 7 10 11 11 10 10 11 12 11 11 10 8 9 12 12 12 13 16 18 19 20 15 16 16 16 17 16 17 17 18 18 16 16 nan nan nan nan nan nan 15
nan nan nan nan nan nan nan nan nan nan nan nan nan nan nan nan nan nan nan nan nan nan nan nan nan nan nan nan nan 18 16 16 19 13 11 9 8 7 5 4 4 7 8 8 7 4 6 10 13 14 14 11 11 12 14 13 12 10 12 13 13 14 15 17 18 17 19 17 15 16 16 17 18 19 19 18 18 18 nan nan nan nan nan nan nan nan
nan nan nan nan nan nan nan nan nan nan nan nan nan nan nan nan nan nan nan nan nan nan nan nan nan nan nan nan nan nan nan 17 17 15 12 9 7 6 5 4 4 6 8 11 9 7 5 8 13 16 17 15 13 15 16 14 12 13 15 16 17 18 18 18 18 16 18 19 17 18 18 19 20 20 21 20 20 nan nan nan nan nan nan nan nan nan
nan nan nan nan nan nan nan nan nan nan nan nan nan nan nan nan nan nan nan nan nan nan nan nan nan nan nan nan nan nan nan nan 17 15 13 10 6 5 6 7 8 10 11 11 11 10 7 7 12 17 23 27 24 19 15 14 15 17 17 18 19 19 19 19 17 17 18 18 17 18 19 21 21 22 21 20 nan nan nan nan nan nan nan nan nan nan
nan nan nan nan nan nan nan nan nan nan nan nan nan nan nan nan nan nan nan nan nan nan nan nan nan nan nan nan nan nan nan nan nan nan 17 14 8 6 5 6 9 11 13 11 10 10 10 17 31 38 41 36 27 20 17 17 20 22 21 19 19 21 22 21 18 19 20 19 19 18 19 23 22 22 20 19 nan nan nan nan nan nan nan nan nan nan
nan nan nan nan nan nan nan nan nan nan nan nan nan nan nan nan nan nan nan nan nan nan nan nan nan nan nan nan nan nan nan nan nan nan nan nan nan 9 6 7 11 13 14 13 12 15 24 39 41 39 34 29 24 21 21 22 23 25 25 23 24 25 25 23 21 21 21 18 18 18 19 22 23 21 20 19 nan nan nan nan nan nan nan nan nan nan
nan nan nan nan nan nan nan nan nan nan nan nan nan nan nan nan nan nan nan nan nan nan nan nan nan nan nan nan nan nan nan nan nan nan nan nan nan nan nan 13 15 18 21 19 18 25 37 38 34 32 30 29 29 29 26 27 23 22 25 29 30 28 25 24 23 24 21 18 17 18 19 20 20 19 17 17 18 nan nan nan nan nan nan nan nan nan
nan nan nan nan nan nan nan nan nan nan nan nan nan nan nan nan nan nan nan nan nan nan nan nan nan nan nan nan nan nan nan nan nan nan 20 19 nan nan nan nan 22 25 27 28 28 33 36 36 31 29 31 33 36 33 25 23 22 24 27 32 33 26 23 23 23 24 22 20 18 17 17 18 17 16 16 17 19 20 nan nan nan nan nan nan nan nan
nan nan nan nan nan nan nan nan nan nan nan nan nan nan nan nan nan nan nan nan nan nan nan nan nan nan nan nan nan nan nan nan 27 27 26 25 26 26 28 30 32 33 33 34 36 38 39 38 35 32 33 33 31 30 28 26 29 27 28 32 38 30 20 21 22 24 24 22 20 18 17 17 16 16 15 16 19 20 nan nan nan nan nan nan nan nan
nan nan nan nan nan nan nan nan nan nan nan nan nan nan nan nan nan nan nan nan nan nan nan nan nan nan nan nan nan 29 nan 29 31 30 32 34 36 38 38 40 41 41 41 41 42 42 44 42 37 33 31 29 29 32 32 34 34 29 24 28 nan 24 19 18 24 24 24 23 21 18 18 18 17 17 17 18 19 nan nan nan nan nan nan nan nan nan
nan nan nan nan nan nan nan nan nan nan nan nan nan nan nan nan nan nan nan nan nan nan nan nan nan nan nan nan 27 28 28 31 32 34 35 37 38 40 41 41 43 44 43 44 45 46 46 44 39 34 27 29 30 31 33 34 32 33 nan 25 26 26 18 20 24 22 23 23 20 18 18 18 19 19 19 nan nan nan 21 nan nan nan nan nan nan nan
nan nan nan nan nan nan nan nan nan nan nan nan nan nan nan nan nan nan nan nan nan nan nan nan nan nan nan nan nan 23 24 27 30 33 34 35 36 37 38 38 40 41 42 42 41 43 43 39 37 32 29 28 25 28 33 33 33 35 29 24 28 30 24 22 23 23 22 22 20 18 17 16 16 15 14 14 nan nan nan nan nan nan nan nan nan nan
nan nan nan nan nan nan nan nan nan nan nan nan nan nan nan nan nan nan nan nan nan nan nan nan nan nan nan nan nan 19 19 22 25 28 30 30 30 34 31 32 34 35 36 37 37 38 38 35 32 nan 33 nan 27 27 32 35 33 31 29 25 23 18 18 20 26 24 21 21 19 17 15 14 15 14 13 14 nan nan nan nan nan nan nan nan nan nan
nan nan nan nan nan nan nan nan nan nan nan nan nan nan nan nan nan nan nan nan nan nan nan nan nan nan nan nan nan nan 15 18 21 24 26 28 28 30 29 29 30 32 34 34 35 37 37 30 30 29 36 42 32 23 25 27 28 26 23 16 9 10 17 19 20 20 17 16 15 15 16 18 16 16 15 15 nan nan nan nan nan nan 23 nan nan nan
nan nan nan nan nan nan nan nan nan nan nan nan nan nan nan nan nan nan nan nan nan nan nan nan nan nan nan nan nan 13 13 15 19 21 22 22 22 22 23 22 25 28 30 30 29 30 36 31 28 32 38 40 31 25 22 28 28 21 16 14 7 9 15 17 20 20 17 14 15 16 18 16 15 15 15 14 nan nan nan nan nan nan nan 20 nan nan
nan nan nan nan nan nan nan nan nan nan nan nan nan nan nan nan nan nan nan nan nan nan nan nan nan nan nan nan nan nan 11 12 13 17 18 16 14 14 16 18 23 26 29 31 32 33 32 30 31 33 36 34 28 25 25 27 28 21 18 13 12 11 12 13 16 17 16 15 15 15 15 14 14 15 15 14 nan 15 nan nan nan nan 19 nan nan nan
nan nan nan nan nan nan nan nan nan nan nan nan nan nan nan nan nan nan nan nan nan nan nan nan nan nan nan nan nan nan nan 10 12 15 16 15 13 12 16 19 22 25 29 30 31 31 32 35 34 33 32 29 29 26 25 22 22 19 20 16 19 16 14 14 14 15 16 16 16 15 14 14 14 14 15 15 nan nan nan nan nan nan nan nan nan nan
nan nan nan nan nan nan nan nan nan nan nan nan nan nan nan nan nan nan nan nan nan nan nan nan nan nan nan nan nan nan nan nan 14 15 15 16 16 16 18 21 23 26 28 30 30 29 30 32 32 32 32 30 28 26 25 22 19 16 16 16 19 20 20 18 17 17 16 16 15 14 13 13 14 15 17 17 17 18 18 20 21 nan 21 21 21 nan
36 nan nan nan nan nan nan nan nan nan nan nan nan nan nan nan nan nan nan nan nan nan nan nan nan nan nan nan nan nan nan nan 16 16 16 18 18 18 20 22 23 25 26 28 28 27 28 28 29 30 30 27 25 23 22 20 17 14 14 14 15 16 18 18 16 14 14 14 13 13 13 12 13 14 16 16 16 18 19 20 21 20 21 22 21 20
nan nan nan nan nan nan nan nan nan nan nan nan nan nan nan nan nan nan nan nan nan nan nan nan nan nan nan nan nan 22 22 22 20 21 20 20 20 20 22 23 22 23 24 25 26 26 26 26 26 26 25 25 23 21 19 18 16 13 11 10 11 13 16 18 17 15 13 12 12 13 12 12 13 13 15 16 16 17 18 18 19 20 21 21 20 19
nan nan nan nan nan nan nan nan nan nan nan nan nan nan nan nan nan nan nan nan nan nan nan nan nan nan nan nan nan 28 25 26 24 24 24 24 23 23 23 23 23 22 22 23 24 25 26 25 25 26 26 25 23 22 20 18 17 16 16 14 13 13 14 17 18 18 17 15 14 14 14 14 13 14 15 17 17 16 17 17 17 18 19 20 21 21
nan nan nan nan nan nan nan nan nan nan nan nan nan nan nan nan nan nan nan nan nan nan nan nan nan nan nan nan nan 30 27 25 26 25 25 25 25 24 23 23 24 24 25 26 26 26 27 29 29 29 29 27 25 24 23 21 19 19 20 21 19 17 18 19 19 21 22 21 19 17 16 16 16 16 17 18 18 17 17 16 17 19 21 22 22 21
nan nan nan nan nan nan nan nan nan nan nan nan nan nan nan nan nan nan nan nan nan nan nan nan nan nan nan nan 31 30 28 27 28 27 27 26 26 25 24 24 26 27 28 29 30 30 31 32 33 32 29 28 27 26 26 25 23 23 23 23 22 22 23 22 22 22 24 25 24 22 20 21 20 18 18 19 20 20 19 19 19 21 22 22 21 20
nan nan nan nan nan nan nan nan nan nan nan nan nan nan nan nan nan nan nan nan nan nan nan nan nan nan nan nan nan 30 28 27 27 28 27 26 27 27 27 28 29 30 31 33 33 32 33 33 33 34 32 29 28 27 27 27 26 24 24 25 24 23 23 24 24 24 25 27 28 27 27 26 22 20 20 21 22 23 24 23 22 22 22 23 23 22
nan nan nan nan nan nan nan nan nan nan nan nan nan nan nan nan nan nan nan nan nan nan nan nan nan nan nan nan nan nan 28 28 30 29 30 32 30 29 31 32 33 34 34 35 36 36 36 37 38 37 36 34 31 30 28 27 26 26 28 28 27 26 27 26 26 25 25 28 31 31 30 28 25 23 22 22 23 24 26 25 25 24 23 23 23 24
nan nan nan nan nan nan nan nan nan nan nan nan nan nan nan nan nan nan nan nan nan nan nan nan nan nan nan nan nan nan nan 30 33 37 35 33 33 32 35 36 37 37 38 38 39 40 41 41 41 41 41 39 36 33 31 30 29 29 31 31 31 31 31 30 31 28 26 27 30 31 29 28 26 25 24 25 26 26 26 27 28 27 25 25 25 27
nan nan nan nan nan nan nan nan nan nan nan nan nan nan nan nan nan nan nan nan nan nan nan nan nan nan nan nan nan nan nan nan 38 38 37 37 38 39 41 41 41 41 42 42 42 43 45 45 45 45 44 nan nan nan nan 36 35 35 35 35 34 34 34 34 34 33 31 30 31 31 29 28 28 27 29 32 30 29 30 31 31 30 nan 29 29 30
nan nan nan nan nan nan nan nan nan nan nan nan nan nan nan nan nan nan nan nan nan nan nan nan nan nan nan nan nan nan nan nan nan 41 41 44 45 46 47 47 46 46 45 46 47 48 48 48 nan nan 47 nan nan nan nan 40 41 40 38 nan nan 38 38 39 39 39 38 37 36 36 35 34 33 34 35 33 nan 34 35 nan nan 33 34 34 35 35
nan nan nan nan nan nan nan nan nan nan nan nan nan nan nan nan nan nan nan nan nan nan nan nan nan nan nan nan nan nan nan nan nan 46 45 44 45 49 52 nan nan nan 50 50 49 50 50 nan nan nan nan nan nan nan nan nan nan nan nan nan nan nan nan nan nan nan nan nan nan 42 41 40 39 40 40 41 nan nan nan nan nan 40 40 40 nan 39
nan nan nan nan nan nan nan nan nan nan nan nan nan nan nan nan nan nan nan nan nan nan nan nan nan nan nan nan nan nan nan nan nan nan 48 46 48 48 51 53 53 nan nan nan 50 49 48 nan nan nan nan nan nan nan nan nan nan nan nan nan nan nan nan nan nan nan nan nan nan nan nan nan nan nan nan nan nan nan nan nan nan nan nan nan nan 41
nan nan nan nan nan nan nan nan nan nan nan nan nan nan nan nan nan nan nan nan nan nan nan nan nan nan nan nan nan nan nan nan nan nan 48 48 49 50 52 51 52 nan nan nan nan nan nan nan nan nan nan nan nan nan nan nan nan nan nan nan nan nan nan nan nan nan nan nan nan nan nan nan nan nan nan nan nan nan nan nan nan nan nan nan nan nan
nan nan nan nan nan nan nan nan nan nan nan nan nan nan nan nan nan nan nan nan nan nan nan nan nan nan nan nan nan nan nan nan nan nan nan nan 51 52 53 52 nan nan nan 48 46 nan nan nan nan nan nan nan nan nan nan nan nan nan nan nan nan nan nan nan nan nan nan nan nan nan nan nan nan nan nan nan nan nan nan nan nan nan nan nan nan nan
nan nan nan nan nan nan nan nan nan nan nan nan nan nan nan nan nan nan nan nan nan nan nan nan nan nan nan nan nan nan nan nan nan nan nan nan nan nan nan 53 nan nan nan nan nan nan nan nan nan nan nan nan nan nan nan nan nan nan nan nan nan nan nan nan nan nan nan nan nan nan nan nan nan nan nan nan nan nan nan nan nan nan nan 45 46 nan
nan nan nan nan nan nan nan nan nan nan nan nan nan nan nan nan nan nan nan nan nan nan nan nan nan nan nan nan nan nan nan nan nan nan nan nan nan nan nan nan nan nan nan nan nan nan nan nan nan nan nan nan nan nan nan nan nan nan nan nan nan nan nan nan nan nan nan nan nan nan nan nan nan nan nan nan nan nan 38 38 40 nan nan nan nan nan
nan nan nan nan nan nan nan nan nan nan nan nan nan nan nan nan nan nan nan nan nan nan nan nan nan nan nan nan nan nan nan nan nan nan nan nan nan nan nan nan nan nan nan nan nan nan nan nan nan nan nan nan nan nan nan nan nan nan nan nan nan nan nan nan nan nan nan nan nan nan nan nan nan nan nan nan nan nan nan nan nan nan nan nan nan nan
nan nan nan nan nan nan nan nan nan nan nan nan nan nan nan nan nan nan nan nan nan nan nan nan nan nan nan nan nan nan nan nan nan nan nan nan nan nan nan nan nan nan nan nan nan nan nan nan nan nan nan nan nan nan nan nan nan nan nan nan nan nan nan nan nan nan nan nan nan nan nan nan nan nan 42 nan nan nan nan nan nan nan nan nan nan nan
nan nan nan nan nan nan nan nan nan nan nan nan nan nan nan nan nan nan nan nan nan nan nan nan nan nan nan nan nan nan nan nan nan nan nan nan nan nan nan nan nan nan nan nan nan nan nan nan nan nan nan nan nan nan nan nan nan nan nan nan nan nan nan nan nan nan nan nan nan nan nan nan nan nan 50 nan nan nan nan nan nan nan nan nan nan nan
nan nan nan nan nan nan nan nan nan nan nan nan nan nan nan nan nan nan nan nan nan nan nan nan nan nan nan nan nan nan nan nan nan nan nan nan nan nan nan nan nan nan nan nan nan nan nan nan nan nan nan nan nan nan nan nan nan nan nan nan nan nan nan nan nan nan nan nan nan nan nan nan nan nan nan nan nan nan nan nan nan nan nan nan nan nan
nan nan nan nan nan nan nan nan nan nan nan nan nan nan nan nan nan nan nan nan nan nan nan nan nan nan nan nan nan nan nan nan nan nan nan nan nan nan nan nan nan nan nan nan nan nan nan nan nan nan nan nan nan nan nan nan nan nan nan nan nan nan nan nan nan nan nan nan nan nan nan nan nan nan nan 52 nan 54 57 nan nan nan nan nan nan nan
nan nan nan nan nan nan nan nan nan nan nan nan nan nan nan nan nan nan nan nan nan nan nan nan nan nan nan nan nan nan nan nan nan nan nan nan nan nan nan nan nan nan nan nan nan nan nan nan nan nan nan nan nan nan nan nan nan nan nan nan nan nan nan nan nan nan nan nan nan nan nan nan nan nan nan nan nan 55 56 nan nan nan nan nan nan nan
nan nan nan nan nan nan nan nan nan nan nan nan nan nan nan nan nan nan nan nan nan nan nan nan nan nan nan nan nan nan nan nan nan nan nan nan nan nan nan nan nan nan nan nan nan nan nan nan nan nan nan nan nan nan nan nan nan nan nan nan nan nan nan nan nan nan nan nan nan nan nan nan nan nan nan nan nan 51 53 55 nan 55 nan nan nan nan
nan nan nan nan nan nan nan nan nan nan nan nan nan nan nan nan nan nan nan nan nan nan nan nan nan nan nan nan nan nan nan nan nan nan nan nan nan nan nan nan nan nan nan nan nan nan nan nan nan nan nan nan nan nan nan nan nan nan nan nan nan nan nan nan nan nan nan nan nan nan nan nan nan nan nan nan nan nan nan 54 55 55 nan nan nan nan
nan nan nan nan nan nan nan nan nan nan nan nan nan nan nan nan nan nan nan nan nan nan nan nan nan nan nan nan nan nan nan nan nan nan nan nan nan nan nan nan nan nan nan nan nan nan nan nan nan nan nan nan nan nan nan nan nan nan nan nan nan nan nan nan nan nan nan nan nan nan nan nan nan nan nan nan nan nan nan nan nan 58 59 nan 60 61
nan nan nan nan nan nan nan nan nan nan nan nan nan nan nan nan nan nan nan nan nan nan nan nan nan nan nan nan nan nan nan nan nan nan nan nan nan nan nan nan nan nan nan nan nan nan nan nan nan nan nan nan nan nan nan nan nan nan nan nan nan nan nan nan nan nan nan nan nan nan nan nan nan nan nan nan nan nan nan 64 nan nan 63 nan nan 63
nan nan nan nan nan nan nan nan nan nan nan nan nan nan nan nan nan nan nan nan nan nan nan nan nan nan nan nan nan nan nan nan nan nan nan nan nan nan nan nan nan nan nan nan nan nan nan nan nan nan nan nan nan nan nan nan nan nan nan nan nan nan nan nan nan nan nan nan nan nan nan nan nan nan nan nan nan nan nan nan nan nan nan nan nan nan
nan nan nan nan nan nan nan nan nan nan nan nan nan nan nan nan nan nan nan nan nan nan nan nan nan nan nan nan nan nan nan nan nan nan nan nan nan nan nan nan nan nan nan nan nan nan nan nan nan nan nan nan nan nan nan nan nan nan nan nan nan nan nan nan nan nan nan nan nan nan nan nan nan nan nan nan nan nan nan nan nan nan nan nan nan nan
Wind_Direction
nan nan nan nan nan nan nan nan nan nan nan nan nan nan nan nan nan nan nan nan nan nan nan nan nan nan nan 254 268 269 271 271 271 272 271 272 272 274 276 282 288 284 276 278 284 286 294 304 306 302 309 308 300 301 322 333 329 336 317 261 274 252 233 229 216 236 251 252 252 251 249 257 268 279 280 279 275 273 274 277 281 283 281 282 282 282
nan nan nan nan nan nan nan nan nan nan nan nan nan nan nan nan nan nan nan nan nan nan nan nan nan nan nan 244 258 257 263 272 269 267 262 265 261 261 270 274 283 278 268 276 280 284 289 301 309 306 307 315 314 318 325 339 344 303 152 145 249 246 238 215 197 248 256 252 248 245 248 261 272 280 281 279 275 272 272 270 273 278 282 285 284 285
nan nan nan nan nan nan nan nan nan nan nan nan nan nan nan nan nan nan nan nan nan nan nan nan nan nan nan 240 237 243 245 253 264 257 254 258 258 255 259 270 279 274 269 276 286 290 292 303 311 311 313 323 331 331 335 323 289 174 167 224 258 258 240 244 260 269 258 246 234 237 244 255 263 254 260 268 268 269 270 266 267 270 274 279 281 285
nan nan nan nan nan nan nan nan nan nan nan nan nan nan nan nan nan nan nan nan nan nan nan nan nan nan nan 241 245 230 226 239 244 258 254 256 262 263 278 292 291 274 273 284 301 306 308 310 309 311 318 325 329 324 316 314 294 186 224 259 272 262 239 252 276 261 245 249 247 243 249 246 255 272 271 270 269 269 268 265 nan 263 265 268 271 276
nan nan nan nan nan nan nan nan nan nan nan nan nan nan nan nan nan nan nan nan nan nan nan nan nan nan nan 247 245 238 233 244 249 254 256 248 246 247 260 279 281 277 280 292 330 332 324 319 318 320 321 317 322 323 321 316 283 237 267 269 281 271 252 265 269 260 259 259 252 253 255 258 261 264 270 273 270 266 266 nan nan nan nan 264 268 270
nan nan nan nan nan nan nan nan nan nan nan nan nan nan nan nan nan nan nan nan nan nan nan nan nan nan nan nan 240 242 240 250 246 252 264 276 285 273 281 271 261 268 290 314 344 6 339 329 320 320 322 323 316 310 306 302 288 288 276 263 262 260 263 266 267 264 264 261 262 265 267 268 267 269 272 276 280 279 270 nan nan nan nan nan nan 267
nan nan nan nan nan nan nan nan nan nan nan nan nan nan nan nan nan nan nan nan nan nan nan nan nan nan nan nan nan 236 236 242 242 244 257 282 299 306 298 285 272 277 291 308 320 332 343 337 327 321 318 317 307 293 285 285 280 275 265 259 252 248 251 254 255 257 254 253 255 263 270 275 274 272 261 257 265 273 nan nan nan nan nan nan nan nan
nan nan nan nan nan nan nan nan nan nan nan nan nan nan nan nan nan nan nan nan nan nan nan nan nan nan nan nan nan nan nan 247 245 250 266 284 313 330 341 354 357 341 327 312 316 328 341 331 323 316 307 291 277 269 267 265 263 270 266 261 252 241 244 248 248 248 251 254 251 255 261 266 271 272 269 267 269 nan nan nan nan nan nan nan nan nan
nan nan nan nan nan nan nan nan nan nan nan nan nan nan nan nan nan nan nan nan nan nan nan nan nan nan nan nan nan nan nan nan 249 256 265 276 295 333 353 353 347 342 338 328 314 314 322 312 299 286 277 264 253 253 262 259 255 251 251 254 253 249 248 250 252 251 255 255 257 261 266 268 265 270 268 266 nan nan nan nan nan nan nan nan nan nan
nan nan nan nan nan nan nan nan nan nan nan nan nan nan nan nan nan nan nan nan nan nan nan nan nan nan nan nan nan nan nan nan nan nan 250 258 279 306 320 326 321 318 319 318 309 290 277 256 243 244 242 240 238 243 253 258 257 251 246 245 246 247 247 249 250 250 256 257 257 261 266 272 272 268 265 263 nan nan nan nan nan nan nan nan nan nan
nan nan nan nan nan nan nan nan nan nan nan nan nan nan nan nan nan nan nan nan nan nan nan nan nan nan nan nan nan nan nan nan nan nan nan nan nan 256 281 296 292 293 300 297 286 267 250 256 263 252 245 243 235 239 242 244 253 257 252 246 239 235 239 245 248 252 255 251 254 260 265 270 272 271 268 262 nan nan nan nan nan nan nan nan nan nan
nan nan nan nan nan nan nan nan nan nan nan nan nan nan nan nan nan nan nan nan nan nan nan nan nan nan nan nan nan nan nan nan nan nan nan nan nan nan nan 260 269 272 275 283 281 274 264 268 286 290 280 269 254 241 238 235 239 248 261 259 245 238 239 241 247 250 251 249 247 252 260 264 269 273 268 266 266 nan nan nan nan nan nan nan nan nan
nan nan nan nan nan nan nan nan nan nan nan nan nan nan nan nan nan nan nan nan nan nan nan nan nan nan nan nan nan nan nan nan nan nan 234 232 nan nan nan nan 273 273 279 281 283 284 281 287 290 287 289 278 261 257 246 240 259 255 247 252 243 231 238 239 248 255 254 251 249 251 254 256 260 265 267 267 268 272 nan nan nan nan nan nan nan nan
nan nan nan nan nan nan nan nan nan nan nan nan nan nan nan nan nan nan nan nan nan nan nan nan nan nan nan nan nan nan nan nan 239 240 241 241 242 247 254 263 268 270 275 279 280 282 283 287 286 279 279 277 272 281 283 278 276 264 259 252 233 215 219 239 247 254 253 248 243 242 245 248 254 260 264 267 273 272 nan nan nan nan nan nan nan nan
nan nan nan nan nan nan nan nan nan nan nan nan nan nan nan nan nan nan nan nan nan nan nan nan nan nan nan nan nan 243 nan 243 246 247 248 254 257 259 261 264 267 269 269 271 272 275 279 283 286 279 279 283 281 281 282 281 280 270 268 271 nan 230 208 225 241 246 251 248 244 241 242 246 251 259 260 263 267 nan nan nan nan nan nan nan nan nan
nan nan nan nan nan nan nan nan nan nan nan nan nan nan nan nan nan nan nan nan nan nan nan nan nan nan nan nan 246 249 251 251 252 253 256 260 263 263 263 264 265 265 266 268 270 270 272 273 273 271 254 244 265 282 283 282 272 262 nan 263 250 236 237 247 244 242 249 251 251 255 257 257 260 260 261 nan nan nan 267 nan nan nan nan nan nan nan
nan nan nan nan nan nan nan nan nan nan nan nan nan nan nan nan nan nan nan nan nan nan nan nan nan nan nan nan nan 256 259 256 256 257 258 261 263 264 264 265 267 268 269 270 269 270 270 269 279 285 280 262 252 263 276 276 266 262 252 239 232 226 225 248 248 242 248 254 259 262 262 267 269 267 267 260 nan nan nan nan nan nan nan nan nan nan
nan nan nan nan nan nan nan nan nan nan nan nan nan nan nan nan nan nan nan nan nan nan nan nan nan nan nan nan nan 257 254 253 254 255 258 260 261 265 263 263 266 269 273 277 276 274 275 273 274 nan 276 nan 247 255 270 273 267 257 244 229 221 233 249 245 233 235 246 252 255 259 260 260 260 257 255 258 nan nan nan nan nan nan nan nan nan nan
nan nan nan nan nan nan nan nan nan nan nan nan nan nan nan nan nan nan nan nan nan nan nan nan nan nan nan nan nan nan 268 265 261 261 266 268 265 265 263 259 256 257 258 262 267 267 267 272 273 278 275 267 260 269 276 272 259 254 253 254 258 249 232 235 225 231 234 237 237 240 248 255 254 253 252 254 nan nan nan nan nan nan 278 nan nan nan
nan nan nan nan nan nan nan nan nan nan nan nan nan nan nan nan nan nan nan nan nan nan nan nan nan nan nan nan nan 279 276 272 268 267 272 272 273 262 264 262 261 257 257 260 260 262 273 279 269 268 267 264 270 275 263 251 247 260 263 256 244 230 222 225 227 225 230 239 245 243 244 250 255 259 260 261 nan nan nan nan nan nan nan 280 nan nan
nan nan nan nan nan nan nan nan nan nan nan nan nan nan nan nan nan nan nan nan nan nan nan nan nan nan nan nan nan nan 271 275 274 271 269 272 272 265 258 253 249 251 257 259 262 266 270 276 278 267 258 260 275 279 268 258 261 271 273 266 250 228 212 218 224 230 241 252 249 247 250 253 256 266 266 271 nan 270 nan nan nan nan 271 nan nan nan
nan nan nan nan nan nan nan nan nan nan nan nan nan nan nan nan nan nan nan nan nan nan nan nan nan nan nan nan nan nan nan 253 264 268 268 273 279 267 253 251 248 252 256 261 263 266 270 268 269 268 264 267 280 285 284 277 271 274 274 262 251 248 241 238 230 233 242 239 237 242 247 254 258 265 271 277 nan nan nan nan nan nan nan nan nan nan
nan nan nan nan nan nan nan nan nan nan nan nan nan nan nan nan nan nan nan nan nan nan nan nan nan nan nan nan nan nan nan nan 264 269 267 267 267 263 259 258 251 250 254 259 264 262 261 262 269 274 279 283 287 288 291 290 281 266 259 256 253 252 250 241 232 230 228 225 228 237 242 250 258 265 274 275 272 270 264 258 260 nan 270 273 277 nan
237 nan nan nan nan nan nan nan nan nan nan nan nan nan nan nan nan nan nan nan nan nan nan nan nan nan nan nan nan nan nan nan 252 251 256 256 256 262 265 263 262 264 261 264 268 268 268 271 273 274 278 280 283 288 290 288 282 270 260 253 251 249 249 244 234 229 224 224 228 233 239 248 254 268 271 273 268 270 268 266 264 264 268 275 278 279
nan nan nan nan nan nan nan nan nan nan nan nan nan nan nan nan nan nan nan nan nan nan nan nan nan nan nan nan nan 251 256 260 254 243 241 247 249 255 261 265 267 267 269 269 273 276 277 275 275 273 274 276 278 282 286 288 287 286 277 266 251 241 236 234 235 233 231 235 242 241 242 247 253 264 269 268 265 268 269 269 265 263 268 273 278 277
nan nan nan nan nan nan nan nan nan nan nan nan nan nan nan nan nan nan nan nan nan nan nan nan nan nan nan nan nan 247 257 260 252 251 247 242 247 256 264 269 268 268 268 268 266 264 260 262 265 270 271 272 272 274 277 280 281 281 283 281 272 261 252 247 243 241 240 241 248 246 243 244 251 260 265 266 266 268 268 268 266 263 260 267 273 272
nan nan nan nan nan nan nan nan nan nan nan nan nan nan nan nan nan nan nan nan nan nan nan nan nan nan nan nan nan 243 247 258 262 259 255 253 252 254 256 258 258 258 258 258 258 259 258 255 256 262 268 272 276 278 279 280 278 277 279 279 278 278 269 263 260 259 254 249 247 247 246 247 252 258 260 261 259 257 262 269 269 267 264 264 266 266
nan nan nan nan nan nan nan nan nan nan nan nan nan nan nan nan nan nan nan nan nan nan nan nan nan nan nan nan 241 242 249 254 255 254 254 253 253 252 252 254 254 257 258 260 260 260 262 263 264 262 262 264 267 270 272 274 276 278 278 277 276 271 267 264 266 268 266 260 254 252 251 246 251 260 262 258 257 257 261 269 273 271 266 265 265 260
nan nan nan nan nan nan nan nan nan nan nan nan nan nan nan nan nan nan nan nan nan nan nan nan nan nan nan nan nan 242 249 252 249 250 248 250 251 254 257 258 258 258 260 261 261 262 263 267 269 270 268 265 262 259 257 260 259 261 264 269 273 273 270 269 271 273 274 269 260 252 249 247 249 254 260 262 262 262 265 269 274 276 271 266 262 256
nan nan nan nan nan nan nan nan nan nan nan nan nan nan nan nan nan nan nan nan nan nan nan nan nan nan nan nan nan nan 249 256 256 254 254 254 252 256 262 261 260 260 261 263 265 267 269 270 271 271 269 265 261 258 257 257 257 260 264 265 267 271 268 271 270 273 277 275 262 251 248 248 250 256 257 260 264 267 270 275 278 277 272 267 263 262
nan nan nan nan nan nan nan nan nan nan nan nan nan nan nan nan nan nan nan nan nan nan nan nan nan nan nan nan nan nan nan 260 258 253 252 253 254 259 265 264 264 263 264 264 266 268 269 270 270 270 267 265 263 260 258 258 258 257 258 259 262 264 266 270 272 269 271 270 259 250 248 247 250 254 260 263 267 268 269 271 272 273 269 262 259 259
nan nan nan nan nan nan nan nan nan nan nan nan nan nan nan nan nan nan nan nan nan nan nan nan nan nan nan nan nan nan nan nan 254 254 256 257 259 263 266 266 264 264 264 264 265 266 266 267 268 268 268 nan nan nan nan 259 261 261 262 261 262 264 266 268 268 268 266 264 261 261 263 261 260 260 260 259 261 265 267 269 269 271 nan 265 264 262
nan nan nan nan nan nan nan nan nan nan nan nan nan nan nan nan nan nan nan nan nan nan nan nan nan nan nan nan nan nan nan nan nan 258 261 262 263 264 265 265 264 262 261 261 262 262 263 264 nan nan 267 nan nan nan nan 263 265 264 264 nan nan 263 264 265 265 264 264 264 266 267 268 269 270 270 271 272 nan 271 271 nan nan 268 270 271 269 267
nan nan nan nan nan nan nan nan nan nan nan nan nan nan nan nan nan nan nan nan nan nan nan nan nan nan nan nan nan nan nan nan nan 265 263 264 265 265 265 nan nan nan 260 259 258 258 259 nan nan nan nan nan nan nan nan nan nan nan nan nan nan nan nan nan nan nan nan nan nan 264 266 267 267 268 266 266 nan nan nan nan nan 268 266 265 nan 263
nan nan nan nan nan nan nan nan nan nan nan nan nan nan nan nan nan nan nan nan nan nan nan nan nan nan nan nan nan nan nan nan nan nan 259 258 259 259 260 259 258 nan nan nan 255 255 256 nan nan nan nan nan nan nan nan nan nan nan nan nan nan nan nan nan nan nan nan nan nan nan nan nan nan nan nan nan nan nan nan nan nan nan nan nan nan 262
nan nan nan nan nan nan nan nan nan nan nan nan nan nan nan nan nan nan nan nan nan nan nan nan nan nan nan nan nan nan nan nan nan nan 252 251 252 255 256 256 258 nan nan nan nan nan nan nan nan nan nan nan nan nan nan nan nan nan nan nan nan nan nan nan nan nan nan nan nan nan nan nan nan nan nan nan nan nan nan nan nan nan nan nan nan nan
nan nan nan nan nan nan nan nan nan nan nan nan nan nan nan nan nan nan nan nan nan nan nan nan nan nan nan nan nan nan nan nan nan nan nan nan 248 250 255 258 nan nan nan 259 259 nan nan nan nan nan nan nan nan nan nan nan nan nan nan nan nan nan nan nan nan nan nan nan nan nan nan nan nan nan nan nan nan nan nan nan nan nan nan nan nan nan
nan nan nan nan nan nan nan nan nan nan nan nan nan nan nan nan nan nan nan nan nan nan nan nan nan nan nan nan nan nan nan nan nan nan nan nan nan nan nan 255 nan nan nan nan nan nan nan nan nan nan nan nan nan nan nan nan nan nan nan nan nan nan nan nan nan nan nan nan nan nan nan nan nan nan nan nan nan nan nan nan nan nan nan 263 263 nan
nan nan nan nan nan nan nan nan nan nan nan nan nan nan nan nan nan nan nan nan nan nan nan nan nan nan nan nan nan nan nan nan nan nan nan nan nan nan nan nan nan nan nan nan nan nan nan nan nan nan nan nan nan nan nan nan nan nan nan nan nan nan nan nan nan nan nan nan nan nan nan nan nan nan nan nan nan nan 266 265 264 nan nan nan nan nan
nan nan nan nan nan nan nan nan nan nan nan nan nan nan nan nan nan nan nan nan nan nan nan nan nan nan nan nan nan nan nan nan nan nan nan nan nan nan nan nan nan nan nan nan nan nan nan nan nan nan nan nan nan nan nan nan nan nan nan nan nan nan nan nan nan nan nan nan nan nan nan nan nan nan nan nan nan nan nan nan nan nan nan nan nan nan
nan nan nan nan nan nan nan nan nan nan nan nan nan nan nan nan nan nan nan nan nan nan nan nan nan nan nan nan nan nan nan nan nan nan nan nan nan nan nan nan nan nan nan nan nan nan nan nan nan nan nan nan nan nan nan nan nan nan nan nan nan nan nan nan nan nan nan nan nan nan nan nan nan nan 263 nan nan nan nan nan nan nan nan nan nan nan
nan nan nan nan nan nan nan nan nan nan nan nan nan nan nan nan nan nan nan nan nan nan nan nan nan nan nan nan nan nan nan nan nan nan nan nan nan nan nan nan nan nan nan nan nan nan nan nan nan nan nan nan nan nan nan nan nan nan nan nan nan nan nan nan nan nan nan nan nan nan nan nan nan nan 261 nan nan nan nan nan nan nan nan nan nan nan
nan nan nan nan nan nan nan nan nan nan nan nan nan nan nan nan nan nan nan nan nan nan nan nan nan nan nan nan nan nan nan nan nan nan nan nan nan nan nan nan nan nan nan nan nan nan nan nan nan nan nan nan nan nan nan nan nan nan nan nan nan nan nan nan nan nan nan nan nan nan nan nan nan nan nan nan nan nan nan nan nan nan nan nan nan nan
nan nan nan nan nan nan nan nan nan nan nan nan nan nan nan nan nan nan nan nan nan nan nan nan nan nan nan nan nan nan nan nan nan nan nan nan nan nan nan nan nan nan nan nan nan nan nan nan nan nan nan nan nan nan nan nan nan nan nan nan nan nan nan nan nan nan nan nan nan nan nan nan nan nan nan 264 nan 262 262 nan nan nan nan nan nan nan
nan nan nan nan nan nan nan nan nan nan nan nan nan nan nan nan nan nan nan nan nan nan nan nan nan nan nan nan nan nan nan nan nan nan nan nan nan nan nan nan nan nan nan nan nan nan nan nan nan nan nan nan nan nan nan nan nan nan nan nan nan nan nan nan nan nan nan nan nan nan nan nan nan nan nan nan nan 267 266 nan nan nan nan nan nan nan
nan nan nan nan nan nan nan nan nan nan nan nan nan nan nan nan nan nan nan nan nan nan nan nan nan nan nan nan nan nan nan nan nan nan nan nan nan nan nan nan nan nan nan nan nan nan nan nan nan nan nan nan nan nan nan nan nan nan nan nan nan nan nan nan nan nan nan nan nan nan nan nan nan nan nan nan nan 270 270 272 nan 270 nan nan nan nan
nan nan nan nan nan nan nan nan nan nan nan nan nan nan nan nan nan nan nan nan nan nan nan nan nan nan nan nan nan nan nan nan nan nan nan nan nan nan nan nan nan nan nan nan nan nan nan nan nan nan nan nan nan nan nan nan nan nan nan nan nan nan nan nan nan nan nan nan nan nan nan nan nan nan nan nan nan nan nan 269 271 272 nan nan nan nan
nan nan nan nan nan nan nan nan nan nan nan nan nan nan nan nan nan nan nan nan nan nan nan nan nan nan nan nan nan nan nan nan nan nan nan nan nan nan nan nan nan nan nan nan nan nan nan nan nan nan nan nan nan nan nan nan nan nan nan nan nan nan nan nan nan nan nan nan nan nan nan nan nan nan nan nan nan nan nan nan nan 269 270 nan 273 273
nan nan nan nan nan nan nan nan nan nan nan nan nan nan nan nan nan nan nan nan nan nan nan nan nan nan nan nan nan nan nan nan nan nan nan nan nan nan nan nan nan nan nan nan nan nan nan nan nan nan nan nan nan nan nan nan nan nan nan nan nan nan nan nan nan nan nan nan nan nan nan nan nan nan nan nan nan nan nan 265 nan nan 266 nan nan 267
nan nan nan nan nan nan nan nan nan nan nan nan nan nan nan nan nan nan nan nan nan nan nan nan nan nan nan nan nan nan nan nan nan nan nan nan nan nan nan nan nan nan nan nan nan nan nan nan nan nan nan nan nan nan nan nan nan nan nan nan nan nan nan nan nan nan nan nan nan nan nan nan nan nan nan nan nan nan nan nan nan nan nan nan nan nan
nan nan nan nan nan nan nan nan nan nan nan nan nan nan nan nan nan nan nan nan nan nan nan nan nan nan nan nan nan nan nan nan nan nan nan nan nan nan nan nan nan nan nan nan nan nan nan nan nan nan nan nan nan nan nan nan nan nan nan nan nan nan nan nan nan nan nan nan nan nan nan nan nan nan nan nan nan nan nan nan nan nan nan nan nan nan